Location: Rounton
(54.4000°N, 1.3500°W)
Time: 10:11:42
(UTC+00:00)

S-56A Canister/Altair - All Passes

Search period start: 22 February 2024 00:00
Search period end: 03 March 2024 00:00
Orbit: 640 x 2488 km, 38.9° (Epoch: 21 February)

Date Brightness Start Highest point End Pass type
(mag) Time Alt. Az. Time Alt. Az. Time Alt. Az.
22 Feb - 11:38:23 10° S 11:38:54 10° S 11:39:24 10° SSE daylight
22 Feb - 13:39:43 10° SSW 13:41:15 11° S 13:42:46 10° SSE daylight
23 Feb - 11:05:23 10° S 11:05:48 10° SSE 11:06:13 10° SSE daylight
23 Feb - 13:06:25 10° SSW 13:08:10 12° S 13:09:53 10° SSE daylight
24 Feb - 10:32:10 10° S 10:32:41 10° SSE 10:33:12 10° SSE daylight
24 Feb - 12:33:04 10° SSW 12:35:06 13° S 12:37:03 10° SSE daylight
25 Feb - 09:58:50 10° S 09:59:33 10° SSE 10:00:15 10° SSE daylight
25 Feb - 11:59:38 10° SSW 12:02:01 13° S 12:04:14 10° SSE daylight
26 Feb - 09:25:29 10° S 09:26:24 10° SSE 09:27:18 10° SSE daylight
26 Feb - 11:26:09 10° SSW 11:28:56 14° S 11:31:27 10° SSE daylight
27 Feb - 08:52:07 10° S 08:53:14 10° SSE 08:54:17 10° SSE daylight
27 Feb - 10:52:37 10° SSW 10:55:49 15° S 10:58:38 10° SE daylight
27 Feb - 12:57:12 10° SSW 12:58:07 10° SSW 12:59:03 10° S daylight
28 Feb - 08:18:46 10° S 08:20:01 10° SSE 08:21:12 10° SSE daylight
28 Feb - 10:19:02 10° SSW 10:22:41 16° S 10:25:50 10° SE daylight
28 Feb - 12:23:06 10° SW 12:25:03 12° SSW 12:26:54 10° S daylight
29 Feb - 07:45:28 10° SSE 07:46:47 10° SSE 07:48:02 10° SSE daylight
29 Feb - 09:45:24 10° SSW 09:49:32 17° S 09:53:00 10° SE daylight
29 Feb - 11:49:15 10° SW 11:51:59 14° SSW 11:54:26 10° SSE daylight
01 Mar - 07:12:18 10° SSE 07:13:31 10° SSE 07:14:41 10° SSE daylight
01 Mar - 09:11:43 10° SSW 09:16:22 18° S 09:20:09 10° SE daylight
01 Mar - 11:15:26 10° SW 11:18:54 16° SSW 11:21:52 10° SSE daylight
02 Mar - 06:39:21 10° SSE 06:40:13 10° SSE 06:41:03 10° SSE daylight
02 Mar - 08:37:59 10° SSW 08:43:08 18° S 08:47:16 10° SE daylight
02 Mar - 10:41:37 10° SW 10:45:46 17° SSW 10:49:15 10° SSE daylight
